Location: Newark
(44.3681°N, 100.3364°W)
Time: 10:11:35
(UTC+00:00)

Explorer 7 - Pass Details

Date: 23 February 2020
Orbit: 485 x 679 km, 50.3° (Epoch: 28 March)

Event Time Altitude Azimuth Distance (km) Brightness Sun altitude
Rises 22:59:26 0° 297° (WNW) 2,821 11.0 12.8°
Reaches altitude 10° 23:01:47 10° 300° (WNW) 1,883 10.1 12.4°
Maximum altitude 23:06:04 69° 23° (NNE) 590 7.0 11.7°
Drops below altitude 10° 23:10:03 10° 108° (ESE) 1,762 9.0 11.1°
Sets 23:12:12 0° 111° (ESE) 2,620 9.9 10.7°
